{"data":{"norad_id":69338,"intl_designator":"2026-122K","name":"STARLINK-37788","alt_names":[],"object_type":"PAYLOAD","status":"ACTIVE","operator":null,"country":"US","launch_date":"2026-06-03","launch_site_code":"AFWTR","launch_vehicle":null,"mission":null,"orbit_class":"UNKNOWN","rcs_meters":null,"size_class":null,"mass_kg":null,"dimensions":null,"purposes":["comms"],"wikipedia_slug":null,"has_3d_model":false,"image_url":null,"decayed_at":null,"tle_current":{"epoch":"2026-09-20T00:21:36.984096Z","epoch_age_seconds":70924,"freshness":"FRESH","line1":"1 69338U 26122K   26263.01501139  .00010993  00000+0  34234-3 0  9991","line2":"2 69338  97.2838 291.6183 0001164  96.8497 263.2878 15.33444824 16723","mean_motion":15.33444824,"eccentricity":0.0001164,"inclination_deg":97.2838,"raan_deg":291.6183,"arg_perigee_deg":96.8497,"mean_anomaly_deg":263.2878,"bstar":0.00034234,"rev_number":1672,"period_min":93.90621543485,"perigee_km":464.74709369709,"apogee_km":466.34030256362,"semimajor_km":6843.6806981304,"source":"CELESTRAK","updated_at":"2026-09-20T09:00:44.160747Z"}}}